Location: Newark
(42.8481°N, 0.4872°E)
Time: 18:18:09
(UTC+00:00)

Vanguard 3 - Pass Details

Date: 30 October 2020
Orbit: 508 x 3262 km, 33.3° (Epoch: 24 November)

Event Time Altitude Azimuth Distance (km) Brightness Sun altitude
Rises 06:36:45 0° 253° (WSW) 6,467 11.2 0.3°
Reaches altitude 10° 06:40:42 10° 250° (WSW) 5,702 11.0 1.0°
Maximum altitude 06:59:09 63° 176° (S) 3,514 10.6 4.1°
Drops below altitude 10° 07:17:08 10° 101° (E) 5,579 13.3 7.1°
Sets 07:20:56 0° 98° (E) 6,328 13.3 7.7°
